Regional Weather Roundup
Issued by NWS Wakefield, VA

Home | Current Version | Previous Version | Graphics & Text | Print | Product List | Glossary On
Versions: 1 2 3 4 5 6 7 8 9 10 11 12 13 14 15 16 17 18 19 20 21 22 23 24 25 26 27
000
ASUS41 KAKQ 281215
RWRAKQ

REGIONAL WEATHER ROUNDUP
NATIONAL WEATHER SERVICE WAKEFIELD VA
800 AM EDT SUN AUG 28 2016

Note: "fair" indicates few or no clouds below 12,000 feet with no
significant weather and/or obstructions to visibility. * = Denotes
station may not report precipitation (e.g., rain,snow,etc.),
thunder or fog.

VAZ042-051-052>054-056-281300-
NORTHERN VIRGINIA

CITY           SKY/WX    TMP DP  RH WIND       PRES   REMARKS
WASH NATIONAL  PTSUNNY   75  71  87 NE8       30.25R
DULLES         MOSUNNY   74  68  81 CALM      30.25R
FORT BELVOIR   SUNNY     71  69  95 CALM      30.24R
QUANTICO       NOT AVBL
FREDERICKSBRG*   N/A     72  72 100 CALM      30.23R
STAFFORD*      SUNNY     69  68  96 CALM      30.28R
WARRENTON      SUNNY     69  64  85 CALM      30.25R
CULPEPER*      SUNNY     68  68 100 CALM      30.26R
MANASSAS*      SUNNY     70  68  94 CALM      30.25R
LEESBURG*      SUNNY     72  72 100 N5        30.27S
WINCHESTER     SUNNY     70  66  88 CALM      30.25S
FRONT ROYAL*   FAIR      70  68  94 CALM      30.25R
LURAY*         FAIR     N/A N/A N/A CALM      30.26R
$$

VAZ048-049-060>072-079>083-281300-
CENTRAL AND SOUTH CENTRAL VIRGINIA

CITY           SKY/WX    TMP DP  RH WIND       PRES   REMARKS
RICHMOND       FOG       70  70 100 N8        30.23R VSB 1/4
CHESTERFIELD*  FAIR      72  57  60 N6        30.24R
PETERSBURG*    CLOUDY   N/A N/A N/A CALM      30.23R
HANOVER        FOG       71  69  93 N5        30.25R VSB 3/4
TAPPAHANNOCK*  SUNNY     73  73 100 N3        30.23S FOG
QUINTON*       FOG       69  69 100 N7        30.22R VSB<1/4
CHARLOTTSVILLE SUNNY     71  66  84 N3        30.24S
GORDONSVILLE*  FAIR      68  66  94 CALM      30.24R
ORANGE*          N/A     68  68 100 CALM      30.26S
LOUISA*        CLOUDY    73  73 100 CALM      30.23S FOG
BUMPASS*       FAIR      71  71 100 CALM      30.24R
FARMVILLE*     SUNNY    N/A N/A N/A CALM      30.23R
CREWE*         CLOUDY    67  67 100 CALM      30.24R
FORT PICKETT*  NOT AVBL
CHASE CITY*    CLOUDY    70  68  94 CALM      30.23R VSB 1/2
CLARKSVILLE*   CLOUDY    70  70 100 CALM      30.22R
SOUTH HILL*    CLOUDY    70  70 100 N3        30.27R
LAWRENCEVILLE* PTSUNNY   72  71  98 CALM      30.21R
EMPORIA*       FOG       68  68 100 NW5       30.22R VSB 1/2
$$

VAZ088>098-281300-
SOUTHEAST VIRGINIA

CITY           SKY/WX    TMP DP  RH WIND       PRES   REMARKS
NORFOLK        CLOUDY    79  74  84 NE8       30.17R
VIRGINIA BEACH PTSUNNY   84  73  69 E9        30.16R
NORFOLK NAVAL  PTSUNNY   80  73  79 NE13      30.19R
WEST POINT*    CLOUDY    71  70  98 N3        30.23R VSB 3/4
SALUDA*        FAIR      77  74  91 N3        30.20R
NEWPORT NEWS   MOSUNNY   77  74  90 N6        30.19R
LANGLEY AFB    SUNNY     79  74  83 NE14      30.18R
FORT EUSTIS    MOSUNNY   76  74  93 VRB5      30.17R
WILLIAMSBURG*  MOSUNNY   75  75 100 N3        30.21R
HR EXEC AP*    CLOUDY    79  73  83 NE6       30.20R
FRANKLIN*      CLOUDY    72  71  97 N3        30.19R
US460-WAKEFLD  FOG       72  71  97 N5        30.20R VSB 1/4
$$

VAZ020-022-025-037-045-281300-
WEST CENTRAL AND SOUTHWEST VIRGINIA

CITY           SKY/WX    TMP DP  RH WIND       PRES   REMARKS
STAUNTON*      MOSUNNY   66  65  96 CALM      30.29R FOG
WAYNESBORO*    FAIR      69  65  87 CALM      30.28R
HOT SPRINGS VA SUNNY     68  63  84 SE3       30.37S
LYNCHBURG      SUNNY     70  66  87 CALM      30.26R
DANVILLE       SUNNY     71  67  87 NE7       30.23R
SOUTH BOSTON*  FAIR      69  67  95 CALM      30.22R
MARTINSVILLE   MOSUNNY   69  68  96 CALM      30.27R FOG
ROANOKE        MOSUNNY   72  68  87 E5        30.28R
BLACKSBURG     PTSUNNY   69  67  92 CALM      30.33S
DUBLIN*        PTSUNNY   70  69  99 CALM      30.32R
MARION*        PTSUNNY   70  67  92 CALM      30.35R
HILLSVILLE*    PTSUNNY   66  66 100 CALM      30.31R FOG
RICHLANDS*     FAIR      73  68  86 SE5       30.31R
WISE*          CLOUDY    73  61  64 CALM      30.32R
ABINGDON*      PTSUNNY   76  70  81 E6        30.28R
$$

MDZ021>025-VAZ099-100-281300-
SOUTHERN MARYLAND AND THE DELMARVA PENINSULA

CITY           SKY/WX    TMP DP  RH WIND       PRES   REMARKS
PATUXENT RIVER PTSUNNY   75  72  90 NE5       30.22S
BAY BRIDGE APT SUNNY     75  72  88 NE3       30.25R
LEONARDTOWN    SUNNY     72  70  94 CALM      30.24F
DOVER          SUNNY     74  74 100 N6        30.23R
GEORGETOWN     NOT AVBL
EASTON         MOSUNNY   72  72 100 CALM      30.28R
CAMBRIDGE      SUNNY     72  70  94 CALM      30.22S
SALISBURY      SUNNY     73  70  90 N6        30.22R
OCEAN CITY     SUNNY     78  70  76 E6        30.21R
WALLOPS ISLAND SUNNY     79  63  57 E10       30.21R
ACCOMACK*      SUNNY     75  71  86 NE5       30.19F
$$

NCZ012>017-030>032-281300-
NORTH CENTRAL AND EASTERN NORTH CAROLINA

CITY           SKY/WX    TMP DP  RH WIND       PRES   REMARKS
ROANOKE RAPIDS CLOUDY    70  70 100 N7        30.19R FOG
RALEIGH        CLOUDY    72  70  93 NE7       30.19R FOG
ELIZABETH CITY CLOUDY    79  76  90 N8        30.15R
AHOSKIE*       CLOUDY    71  70  98 N6        30.18R FOG
EDENTON*       CLOUDY   N/A N/A N/A NE7       30.16R FOG
CURRITUCK*       N/A     80  78  92 NE7       30.16R
KILL DEVIL HLS SUNNY     81  80  99 CALM      30.12S
MANTEO         SUNNY     80  78  93 NE8       30.13S
CAPE HATTERAS  SUNNY     83  76  79 E3        30.11R
TARBORO*       FOG       73  73  99 N6        30.19R VSB 1
GOLDSBORO      CLOUDY    74  74 100 N6        30.15R FOG
WASHINGTON     CLOUDY    74  74  99 N5        30.15R FOG
GREENVILLE     CLOUDY    77  75  94 NE6       30.17R
NEW BERN       CLOUDY    76  74  93 N7        30.14S FOG
WILMINGTON     CLOUDY    76  74  93 N9        30.12R
$$

VAZ048-281300-
ELSEWHERE

CITY           SKY/WX    TMP DP  RH WIND       PRES   REMARKS
HARRISBURG PA  SUNNY     72  69  90 CALM      30.26S
BALTIMORE      MOSUNNY   73  70  90 CALM      30.25R
ANNAPOLIS      MOSUNNY   77  73  87 NE5       30.24R
ANDREWS AFB    MOSUNNY   72  70  94 N6        30.24R
PHILADELPHIA   MOSUNNY   75  69  81 NE3       30.26R
HENDERSON NC   FOG       67  67  98 CALM      30.22R VSB<1/4
GREENSBORO     MOSUNNY   73  71  93 N5        30.22R
ROCKY MOUNT    CLOUDY    73  73 100 N8        30.19R FOG
$$

VAZ100-281300-
MARINE

STATION/POSITION TIME  TEMP    WIND        PRES    WAVE   SWELL
                       AIR SEA DIR/SP/G            HT/PER HT/PER
                 (UTC) (F)     (DEG/KT/KT) (MB)    (FT/S) (FT/S)
BRANDYWINE LGT   1100   75      80/  6/  7   N/A
CAPE MAY NJ      1100   72 74   50/  1/  2 1022.9R
LEWES DE         1100   74 75  110/  5/  6 1023.0R
OCEAN-CITY-INLET 1100   76 75   80/  5/  7 1023.0R
WACHAPREAGUE VA  1100   78 81   60/  8/ 10 1022.1R
THOMAS POINT MD  1200   75 82   20/  5/  5 1025.4R
GOOSES REEF MD   1200   78 82   70/  6/  8 1024.1R   0
COVE POINT MD    1100   74      70/  6/  8 1024.0R
SOLOMONS ISLAND  1100   75 83   20/  5/  6   N/A
PINEY POINT MD   1100           50/  4/  4   N/A
POTOMAC MD       1200   79 83   60/  8/ 10 1022.3R   1/ 2
CAMBRIDGE MD     1100   73 84   10/  4/  6 1022.6R
LEWISETTA VA     1100   79 82   80/  6/  7 1022.6R
RAPPAHANNOCK LGT 1100           60/  9/ 11 1022.8R
STINGRAY PT      1200   80 83   10/ 10/ 14 1023.0R   1/ 3
YORK RVR RNG VA  1100   79      70/ 12/ 14 1021.5R
YORKTOWN VA      1100   78 83   20/  7/  9 1021.6R
JAMESTOWN VA     1200   75 85  350/  6/  8   N/A     0
DOMINION TERM VA 1100   78      40/  4/  6 1021.7R
KIPTOPEKE VA     1100      80   70/  5/  7   N/A
CHES BAY BRIDGE  1100   78 74   30/ 12/ 13 1021.0R
CAPE HENRY VA    1100   78      50/ 13/ 15   N/A
WILLOUBY STN VA  1100   78      50/ 12/ 13   N/A
CAPE HENRY BUOY  1112      80                N/A     4/ 6
1ST LANDING BUOY 1200   79 77   70/ 10/ 12 1021.5R   2/ 3
CAPE CHARLES BUO 1126      79                N/A     4/ 6
OFFSHORE WE BUOY 1121      80                N/A     5/ 5
64NM E OF VA BCH 1150   81 81   60/ 14/ 16 1020.1R   4/ 5   2/ 8
DUCK PIER NC     1100   80 79   40/  7/  8 1019.7R
44100 DUCK FRF   1105      80                N/A     4/ 5
44056 DUCK FRF   1111      79                N/A     4/ 5
OREGON INLET NC  1100   80 79   20/  6/  9 1019.7R
HATTERAS NC      1100   80 83   90/  4/  6 1018.9R
DIAMOND SHLS NC  1150   83 84  100/  8/ 10 1019.4R   3/ 8   3/ 8
CAPE LOOKOUT NC  1200   80     360/  5/  6 1019.2R
$$




USA.gov is the U.S. government's official web portal to all federal, state and local government web resources and services.